W1BKW Weather Reports


time (UTC)temp
C
wind
direction
speed
KPH
gust
KPH
rain 1hr
cm
rain 24hr
cm
rain mn
cm
humidity
%
barometer
mb
20260507234259 10 273 11.3 12.9 0.00 0.05 0.05 45 1004.9
20260507232757 11 308 6.4 11.3 0.00 0.05 0.05 45 1004.7
20260507231252 12 279 3.2 11.3 0.00 0.05 0.05 42 1004.1
20260507225751 12 303 8.0 12.9 0.00 0.05 0.05 47 1004.2
20260507224247 11 62 1.6 11.3 0.00 0.05 0.05 44 1003.8
20260507222742 11 321 9.7 16.1 0.00 0.05 0.05 44 1003.5
20260507221238 12 280 12.9 20.9 0.00 0.05 0.05 46 1003.4
20260507215734 12 293 9.7 17.7 0.00 0.05 0.05 41 1003.2
20260507214232 12 265 9.7 20.9 0.00 0.05 0.05 42 1003.3
20260507212732 12 313 20.9 24.1 0.00 0.05 0.05 41 1003.3
20260507211228 13 250 17.7 22.5 0.00 0.05 0.05 40 1003.2
20260507205724 13 254 16.1 24.1 0.00 0.05 0.05 39 1003.2
20260507204221 13 270 8.0 14.5 0.00 0.05 0.05 40 1002.7
20260507202717 12 312 11.3 25.7 0.00 0.05 0.05 42 1002.7
20260507201218 13 274 11.3 17.7 0.00 0.05 0.05 44 1002.6
20260507195712 13 282 17.7 25.7 0.00 0.05 0.05 45 1002.7
20260507194208 13 281 14.5 25.7 0.00 0.05 0.05 41 1002.6
20260507192704 13 299 17.7 17.7 0.00 0.05 0.05 46 1002.4
20260507191200 13 221 14.5 20.9 0.00 0.05 0.05 47 1002.5
20260507185659 13 262 33.8 35.4 0.00 0.05 0.05 50 1002.5
20260507184157 13 245 16.1 29.0 0.00 0.05 0.05 48 1002.6
20260507182654 12 234 3.2 9.7 0.00 0.05 0.05 52 1002.7
20260507181154 12 256 8.0 22.5 0.00 0.05 0.05 51 1003.0
20260507175649 12 197 19.3 35.4 0.00 0.05 0.05 52 1003.3
20260507174148 12 253 20.9 24.1 0.00 0.05 0.05 62 1003.3
20260507172643 12 270 14.5 24.1 0.00 0.05 0.05 63 1003.2
20260507171138 12 214 17.7 20.9 0.00 0.05 0.05 62 1003.0
20260507165634 12 338 9.7 16.1 0.00 0.05 0.05 62 1003.5
20260507164129 12 236 16.1 22.5 0.00 0.05 0.05 63 1003.5
20260507162625 12 225 8.0 11.3 0.00 0.05 0.05 63 1003.4
20260507161121 12 247 9.7 16.1 0.00 0.05 0.05 63 1003.5
20260507155621 12 287 4.8 11.3 0.00 0.05 0.05 61 1003.8
20260507154118 12 307 12.9 16.1 0.00 0.05 0.05 67 1004.2
20260507152613 11 28 6.4 16.1 0.00 0.05 0.05 71 1004.2
20260507151109 12 320 8.0 24.1 0.00 0.05 0.05 69 1004.1
20260507145603 11 329 8.0 12.9 0.00 0.05 0.05 70 1003.9
20260507144102 11 307 8.0 16.1 0.00 0.05 0.05 69 1004.0
20260507142601 11 253 6.4 11.3 0.00 0.05 0.05 67 1004.3
20260507141057 11 242 4.8 14.5 0.00 0.05 0.05 73 1004.3
20260507135554 11 245 12.9 14.5 0.00 0.05 0.05 71 1004.7
20260507134049 11 292 9.7 16.1 0.00 0.05 0.05 73 1004.4
20260507132546 10 303 8.0 12.9 0.00 0.05 0.05 74 1004.7
20260507131042 10 356 8.0 12.9 0.00 0.05 0.05 78 1004.8
20260507125541 10 339 11.3 16.1 0.00 0.05 0.05 76 1005.0
20260507124038 10 303 6.4 8.0 0.00 0.05 0.05 77 1004.9
20260507122533 9 285 6.4 11.3 0.00 0.05 0.05 79 1005.2
20260507121032 8 298 6.4 9.7 0.00 0.05 0.05 82 1005.1
20260507115528 8 285 4.8 17.7 0.00 0.05 0.05 82 1005.1
20260507114023 7 159 0.0 3.2 0.00 0.05 0.05 87 1005.3
20260507112521 7 165 0.0 3.2 0.00 0.05 0.05 85 1005.4
20260507111016 7 141 0.0 4.8 0.00 0.05 0.05 85 1005.3
20260507105513 7 154 0.0 3.2 0.00 0.05 0.05 87 1005.6
20260507104008 6 126 1.6 3.2 0.00 0.05 0.05 91 1005.6
20260507102504 6 122 3.2 4.8 0.00 0.05 0.05 94 1005.2
20260507100958 6 130 1.6 1.6 0.00 0.05 0.05 98 1005.2
20260507095457 6 140 0.0 1.6 0.00 0.05 0.05 99 1005.3
20260507093953 6 162 0.0 1.6 0.00 0.05 0.05 99 1004.7
20260507092450 6 160 0.0 1.6 0.00 0.05 0.05 97 1004.8
20260507090945 6 147 1.6 1.6 0.00 0.05 0.05 99 1005.1
20260507085441 6 176 0.0 1.6 0.00 0.05 0.05 98 1005.1
20260507083938 6 130 1.6 3.2 0.00 0.05 0.05 98 1005.2
20260507082438 6 104 1.6 3.2 0.00 0.05 0.05 95 1004.5
20260507080935 6 177 0.0 1.6 0.00 0.05 0.05 96 1004.2
20260507075434 6 104 3.2 4.8 0.00 0.05 0.05 95 1005.0
20260507073931 7 125 1.6 3.2 0.00 0.05 0.05 95 1005.1
20260507072428 6 172 0.0 1.6 0.00 0.05 0.05 97 1004.7
20260507070924 6 142 1.6 3.2 0.00 0.05 0.05 97 1004.1
20260507065421 7 84 3.2 4.8 0.00 0.05 0.05 99 1004.5
20260507063920 7 99 4.8 9.7 0.00 0.05 0.05 98 1004.0
20260507062417 7 139 3.2 3.2 0.00 0.05 0.05 99 1003.9
20260507060916 7 116 1.6 3.2 0.00 0.05 0.05 99 1004.2
20260507055416 7 50 1.6 8.0 0.00 0.05 0.05 99 1003.8
20260507053913 7 127 0.0 1.6 0.00 0.05 0.05 99 1003.8
20260507052412 7 118 1.6 3.2 0.00 0.05 0.05 99 1003.4
20260507050909 7 164 0.0 0.0 0.18 0.05 0.05 99 1003.9
20260507045404 8 120 1.6 3.2 0.00 0.03 0.03 99 1003.9
20260507043900 8 325 11.3 22.5 0.00 0.03 0.03 99 1003.6
20260507042356 8 279 14.5 16.1 0.13 0.03 0.03 96 1004.2
20260507040852 8 304 8.0 12.9 0.00 0.00 0.00 97 1004.1
20260507035350 9 300 11.3 16.1 0.18 1.80 1.80 97 1004.1
20260507033848 8 277 6.4 17.7 0.00 1.78 1.78 99 1003.9
20260507032344 9 285 17.7 17.7 0.18 1.78 1.78 99 1003.6
20260507030840 9 130 1.6 8.0 0.13 1.75 1.75 99 1003.5
20260507025337 10 91 1.6 4.8 0.18 1.73 1.73 99 1003.4
20260507023834 10 166 0.0 0.0 0.00 1.70 1.70 99 1003.3
20260507022330 10 326 4.8 9.7 0.00 1.68 1.68 99 1003.1
20260507020825 11 197 0.0 1.6 0.00 1.68 1.68 99 1002.9
20260507015322 11 138 1.6 1.6 0.00 1.68 1.68 99 1002.8
20260507013818 11 181 1.6 8.0 0.00 1.68 1.68 99 1003.0
20260507012314 11 135 1.6 1.6 0.00 1.68 1.68 99 1002.8
20260507010814 11 151 1.6 3.2 0.00 1.65 1.65 99 1003.0
20260507005309 12 186 0.0 3.2 0.30 1.63 1.63 99 1002.8
20260507003806 12 238 8.0 12.9 1.68 1.50 1.50 99 1002.7
20260507002306 13 235 6.4 9.7 0.48 1.19 1.19 99 1002.1
20260507000802 13 186 0.0 3.2 0.13 1.09 1.09 99 1002.0
20260506235256 13 176 1.6 3.2 0.13 1.04 1.04 99 1002.0